Simultaneous Nadir Overpasses (SNOs) Predictions

Prediction of SNOs between AQUA and GOES-15 Satellite Orbit:

Table of predicted SNOs for the next 14.0 days since TLE Epoch: 12/26/2020
Index Date Time (AQUA) AQUA Lat,Lon GOES-15 Lat,Lon Distance(km) Time Diff (sec)
1 12/26/2020 10:19:12 0.68,-130.85 0.15,-128.25 294.66 80
2 12/28/2020 10:07:01 0.05,-127.89 0.15,-128.25 41.07 80
3 12/30/2020 09:54:49 -0.54,-124.93 0.15,-128.24 375.93 80
4 12/30/2020 22:16:14 -0.55,-130.12 -0.18,-128.26 211.19 80
5 01/01/2021 22:04:02 0.04,-127.16 -0.17,-128.24 122.95 80
6 01/02/2021 10:25:17 1.06,-132.31 0.21,-128.21 466.09 80
7 01/03/2021 21:51:51 0.69,-124.21 -0.17,-128.22 456.72 80
8 01/04/2021 10:13:05 0.47,-129.35 0.20,-128.19 132.37 80
9 01/06/2021 10:00:54 -0.19,-126.40 0.20,-128.16 201.01 80
10 01/06/2021 22:22:18 -0.95,-131.58 -0.23,-128.18 386.14 80
11 01/08/2021 22:10:06 -0.34,-128.62 -0.23,-128.15 53.37 80
